Santa Ana, CA

11:19 AM PST on December 13, 2017 (GMT -0800)
John Wayne-Orange County

Weather History for KSNA - April, 2014

Change the Weather History Date:

Monday, April 7, 2014

  Actual Average Record
Temperature  
Mean Temperature 69 °F 60 °F  
Max Temperature 81 °F 68 °F 85 °F (2010)
Min Temperature 56 °F 53 °F 47 °F (1999)
Degree Days  
Heating Degree Days 0 5  
Month to date heating degree days 28 35  
Since 1 July heating degree days 587 1122  
Cooling Degree Days 4 0  
Month to date cooling degree days 7 0  
Year to date cooling degree days 54 15  
Growing Degree Days 19 (Base 50)    
Moisture  
Dew Point 43 °F    
Average Humidity 44    
Maximum Humidity 62    
Minimum Humidity 25    
Precipitation  
Precipitation 0.00 in 0.02 in 0.25 in (2001)
Month to date precipitation 0.19 0.18  
Year to date precipitation 2.46 7.94  
Since 1 July precipitation 3.51  
Snow  
Snow 0.00 in - - ()
Month to date snowfall 0.0  
Year to date snowfall 0.0  
Snow Depth 0.00 in    
Sea Level Pressure  
Sea Level Pressure 30.06 in    
Wind  
Wind Speed 4 mph (SW)    
Max Wind Speed 12 mph    
Max Gust Speed 18 mph    
Visibility 10 miles    
Events      
T = Trace of Precipitation, MM = Missing Value Source: NWS Daily Summary

Daily Weather History Graph

Daily Weather History Graph

Search for Another Location

Airport or City:

Trip Planner

Search our weather history database for the weather conditions in past years. The results will help you decide how hot, cold, wet, or windy it might be!

Date:

Astronomy

Apr. 07, 2014 Rise Set
Actual Time 6:30 AM PDT 7:16 PM PDT
Civil Twilight 6:05 AM PDT 7:41 PM PDT
Nautical Twilight 5:35 AM PDT 8:11 PM PDT
Astronomical Twilight 5:05 AM PDT 8:42 PM PDT
Moon 12:38 PM PDT (4/7) 1:49 AM PDT (4/7)
Length of Visible Light 13h 36m
Length of Day
12h 45m
First Quarter, 54% of the Moon is Illuminated
Apr 7
First Quarter
Apr 15
Full
Apr 22
Last Quarter
Apr 28
New
May 6
First Quarter

Hourly Weather History & Observations

Time (PDT) Temp. Dew Point Humidity Pressure Visibility Wind Dir Wind Speed Gust Speed Precip Events Conditions
12:53 AM 62.1 °F 46.9 °F 58% 30.05 in 10.0 mi Calm Calm - N/A   Clear
1:53 AM 60.1 °F 45.0 °F 57% 30.05 in 10.0 mi Calm Calm - N/A   Clear
2:53 AM 60.1 °F 42.1 °F 51% 30.04 in 10.0 mi Calm Calm - N/A   Clear
3:53 AM 60.1 °F 44.1 °F 55% 30.04 in 10.0 mi WSW 3.5 mph - N/A   Clear
4:53 AM 57.9 °F 45.0 °F 62% 30.04 in 10.0 mi Calm Calm - N/A   Clear
5:53 AM 57.0 °F 43.0 °F 59% 30.05 in 10.0 mi Calm Calm - N/A   Clear
6:53 AM 57.9 °F 39.9 °F 51% 30.06 in 10.0 mi Calm Calm - N/A   Clear
8:53 AM 68.0 °F 41.0 °F 37% 30.09 in 10.0 mi Calm Calm - N/A   Clear
9:53 AM 72.0 °F 37.9 °F 29% 30.10 in 10.0 mi Calm Calm - N/A   Clear
10:53 AM 75.9 °F 44.1 °F 32% 30.10 in 10.0 mi SSW 6.9 mph - N/A   Clear
11:53 AM 77.0 °F 46.9 °F 34% 30.09 in 10.0 mi SSW 9.2 mph - N/A   Clear
12:53 PM 78.1 °F 45.0 °F 31% 30.09 in 10.0 mi SW 10.4 mph - N/A   Clear
1:53 PM 80.1 °F 44.1 °F 28% 30.08 in 10.0 mi SSW 8.1 mph - N/A   Clear
2:53 PM 80.1 °F 42.1 °F 26% 30.06 in 10.0 mi SW 5.8 mph - N/A   Clear
3:53 PM 80.1 °F 43.0 °F 27% 30.04 in 10.0 mi WSW 6.9 mph - N/A   Clear
4:53 PM 81.0 °F 41.0 °F 24% 30.04 in 10.0 mi SW 8.1 mph - N/A   Clear
5:53 PM 80.1 °F 39.9 °F 24% 30.03 in 10.0 mi SSW 4.6 mph - N/A   Clear
6:53 PM 79.0 °F 41.0 °F 26% 30.03 in 10.0 mi Calm Calm - N/A   Clear
7:53 PM 77.0 °F 42.1 °F 29% 30.03 in 10.0 mi Calm Calm - N/A   Clear
8:53 PM 75.0 °F 43.0 °F 32% 30.05 in 10.0 mi Calm Calm - N/A   Clear
9:53 PM 73.0 °F 44.1 °F 35% 30.06 in 10.0 mi Calm Calm - N/A   Clear
10:53 PM 71.1 °F 44.1 °F 38% 30.06 in 10.0 mi Calm Calm - N/A   Clear
11:53 PM 63.0 °F 52.0 °F 67% 30.07 in 10.0 mi SSW 5.8 mph - N/A   Clear